| time (UTC) | temp F | wind direction | speed MPH | gust MPH | rain 1hr in | rain 24hr in | rain mn in | humidity % | barometer mb |
| 20260503014503 | 69 | 360 | 3.0 | 13.0 | 0.00 | 0.00 | 0.00 | 21 | 1027.4 |
| 20260503013603 | 69 | 360 | 4.0 | 11.0 | 0.00 | 0.00 | 0.00 | 21 | 1027.4 |
| 20260503012703 | 70 | 360 | 5.0 | 11.0 | 0.00 | 0.00 | 0.00 | 21 | 1027.4 |
| 20260503011803 | 70 | 360 | 6.0 | 12.0 | 0.00 | 0.00 | 0.00 | 20 | 1027.4 |
| 20260503010903 | 70 | 360 | 5.0 | 12.0 | 0.00 | 0.00 | 0.00 | 20 | 1027.4 |
| 20260503010003 | 71 | 360 | 5.0 | 13.0 | 0.00 | 0.00 | 0.00 | 20 | 1027.4 |
| 20260503005424 | 71 | 360 | 6.0 | 14.0 | 0.00 | 0.00 | 0.00 | 20 | 1027.4 |
| 20260503004503 | 72 | 360 | 4.0 | 12.0 | 0.00 | 0.00 | 0.00 | 18 | 1027.4 |
| 20260503003603 | 72 | 356 | 5.0 | 10.0 | 0.00 | 0.00 | 0.00 | 18 | 1027.4 |
| 20260503002704 | 73 | 357 | 4.0 | 9.0 | 0.00 | 0.00 | 0.00 | 17 | 1027.4 |
| 20260503001824 | 74 | 331 | 2.0 | 6.0 | 0.00 | 0.00 | 0.00 | 17 | 1027.4 |
| 20260503000903 | 75 | 335 | 4.0 | 11.0 | 0.00 | 0.00 | 0.00 | 15 | 1027.4 |
| 20260503000024 | 76 | 87 | 1.0 | 8.0 | 0.00 | 0.00 | 0.00 | 13 | 1027.4 |
| 20260502235403 | 76 | 70 | 2.0 | 8.0 | 0.00 | 0.00 | 0.00 | 14 | 1027.4 |
| 20260502234503 | 77 | 81 | 3.0 | 8.0 | 0.00 | 0.00 | 0.00 | 13 | 1027.4 |
| 20260502233603 | 77 | 26 | 1.0 | 4.0 | 0.00 | 0.00 | 0.00 | 14 | 1027.4 |
| 20260502232703 | 77 | 163 | 1.0 | 5.0 | 0.00 | 0.00 | 0.00 | 13 | 1027.4 |
| 20260502231803 | 77 | 126 | 0.0 | 3.0 | 0.00 | 0.00 | 0.00 | 14 | 1027.4 |
| 20260502230924 | 76 | 124 | 2.0 | 6.0 | 0.00 | 0.00 | 0.00 | 13 | 1027.4 |
| 20260502230003 | 76 | 125 | 1.0 | 5.0 | 0.00 | 0.00 | 0.00 | 14 | 1027.4 |
| 20260502225424 | 75 | 124 | 3.0 | 10.0 | 0.00 | 0.00 | 0.00 | 13 | 1027.4 |
| 20260502224503 | 75 | 122 | 2.0 | 11.0 | 0.00 | 0.00 | 0.00 | 14 | 1027.4 |
| 20260502223624 | 75 | 119 | 3.0 | 10.0 | 0.00 | 0.00 | 0.00 | 16 | 1027.4 |
| 20260502222724 | 76 | 127 | 2.0 | 8.0 | 0.00 | 0.00 | 0.00 | 13 | 1027.4 |
| 20260502221803 | 76 | 132 | 1.0 | 7.0 | 0.00 | 0.00 | 0.00 | 16 | 1027.4 |
| 20260502220924 | 75 | 134 | 1.0 | 4.0 | 0.00 | 0.00 | 0.00 | 13 | 1027.4 |
| 20260502220024 | 74 | 101 | 5.0 | 11.0 | 0.00 | 0.00 | 0.00 | 15 | 1027.4 |
| 20260502215403 | 74 | 101 | 5.0 | 11.0 | 0.00 | 0.00 | 0.00 | 12 | 1027.4 |
| 20260502214503 | 74 | 141 | 2.0 | 10.0 | 0.00 | 0.00 | 0.00 | 15 | 1027.4 |
| 20260502213603 | 74 | 114 | 5.0 | 11.0 | 0.00 | 0.00 | 0.00 | 15 | 1027.4 |
| 20260502212703 | 74 | 129 | 2.0 | 10.0 | 0.00 | 0.00 | 0.00 | 16 | 1027.4 |
| 20260502211803 | 73 | 124 | 6.0 | 16.0 | 0.00 | 0.00 | 0.00 | 14 | 1027.4 |
| 20260502210924 | 73 | 129 | 5.0 | 13.0 | 0.00 | 0.00 | 0.00 | 13 | 1027.4 |
| 20260502210004 | 73 | 130 | 5.0 | 13.0 | 0.00 | 0.00 | 0.00 | 14 | 1027.4 |
| 20260502205403 | 73 | 131 | 4.0 | 11.0 | 0.00 | 0.00 | 0.00 | 14 | 1027.4 |
| 20260502204524 | 72 | 122 | 5.0 | 12.0 | 0.00 | 0.00 | 0.00 | 14 | 1027.4 |
| 20260502203603 | 72 | 131 | 4.0 | 12.0 | 0.00 | 0.00 | 0.00 | 16 | 1027.4 |
| 20260502202703 | 72 | 134 | 5.0 | 11.0 | 0.00 | 0.00 | 0.00 | 15 | 1027.4 |
| 20260502201803 | 72 | 116 | 5.0 | 17.0 | 0.00 | 0.00 | 0.00 | 17 | 1027.4 |
| 20260502200903 | 72 | 103 | 4.0 | 12.0 | 0.00 | 0.00 | 0.00 | 18 | 1027.4 |
| 20260502200003 | 72 | 114 | 5.0 | 12.0 | 0.00 | 0.00 | 0.00 | 15 | 1027.4 |
| 20260502195403 | 72 | 102 | 7.0 | 13.0 | 0.00 | 0.00 | 0.00 | 15 | 1027.4 |
| 20260502194503 | 73 | 107 | 4.0 | 11.0 | 0.00 | 0.00 | 0.00 | 15 | 1027.4 |
| 20260502193603 | 73 | 148 | 2.0 | 9.0 | 0.00 | 0.00 | 0.00 | 18 | 1027.4 |
| 20260502192703 | 73 | 157 | 2.0 | 6.0 | 0.00 | 0.00 | 0.00 | 17 | 1027.4 |
| 20260502191803 | 73 | 151 | 2.0 | 7.0 | 0.00 | 0.00 | 0.00 | 20 | 1027.4 |
| 20260502190924 | 72 | 153 | 2.0 | 6.0 | 0.00 | 0.00 | 0.00 | 20 | 1027.4 |
| 20260502190004 | 71 | 135 | 4.0 | 11.0 | 0.00 | 0.00 | 0.00 | 16 | 1027.4 |
| 20260502185403 | 71 | 138 | 3.0 | 11.0 | 0.00 | 0.00 | 0.00 | 17 | 1027.4 |
| 20260502184503 | 71 | 144 | 4.0 | 11.0 | 0.00 | 0.00 | 0.00 | 18 | 1027.4 |
| 20260502183603 | 72 | 26 | 2.0 | 9.0 | 0.00 | 0.00 | 0.00 | 21 | 1027.4 |
| 20260502182724 | 71 | 6 | 3.0 | 10.0 | 0.00 | 0.00 | 0.00 | 22 | 1027.4 |
| 20260502181803 | 71 | 139 | 3.0 | 15.0 | 0.00 | 0.00 | 0.00 | 23 | 1027.4 |
| 20260502180924 | 70 | 58 | 3.0 | 10.0 | 0.00 | 0.00 | 0.00 | 24 | 1027.4 |
| 20260502163603 | 66 | 155 | 2.0 | 7.0 | 0.00 | 0.00 | 0.00 | 33 | 1027.4 |
| 20260502162703 | 66 | 132 | 2.0 | 7.0 | 0.00 | 0.00 | 0.00 | 34 | 1027.4 |
| 20260502161803 | 65 | 3 | 2.0 | 8.0 | 0.00 | 0.00 | 0.00 | 32 | 1027.4 |
| 20260502160903 | 65 | 38 | 2.0 | 10.0 | 0.00 | 0.00 | 0.00 | 32 | 1027.4 |
| 20260502151803 | 61 | 1 | 2.0 | 12.0 | 0.00 | 0.00 | 0.00 | 38 | 1027.4 |
| 20260502150903 | 60 | 2 | 1.0 | 8.0 | 0.00 | 0.00 | 0.00 | 35 | 1027.4 |
| 20260502123603 | 50 | 191 | 0.0 | 1.0 | 0.00 | 0.00 | 0.00 | 55 | 1027.4 |
| 20260502122703 | 50 | 0 | 0.0 | 0.0 | 0.00 | 0.00 | 0.00 | 57 | 1027.4 |
| 20260502121824 | 50 | 0 | 0.0 | 0.0 | 0.00 | 0.00 | 0.00 | 57 | 1027.4 |
| 20260502120903 | 50 | 173 | 0.0 | 2.0 | 0.00 | 0.00 | 0.00 | 58 | 1027.4 |
| 20260502115403 | 50 | 173 | 0.0 | 1.0 | 0.00 | 0.00 | 0.00 | 58 | 1027.4 |
| 20260502113603 | 51 | 173 | 0.0 | 2.0 | 0.00 | 0.00 | 0.00 | 56 | 1027.4 |
| 20260502112703 | 51 | 173 | 0.0 | 1.0 | 0.00 | 0.00 | 0.00 | 54 | 1027.4 |
| 20260502111803 | 51 | 173 | 0.0 | 2.0 | 0.00 | 0.00 | 0.00 | 55 | 1027.4 |
| 20260502110903 | 51 | 172 | 0.0 | 4.0 | 0.00 | 0.00 | 0.00 | 52 | 1027.4 |
| 20260502110003 | 50 | 173 | 0.0 | 1.0 | 0.00 | 0.00 | 0.00 | 49 | 1027.4 |
| 20260502105424 | 50 | 175 | 0.0 | 2.0 | 0.00 | 0.00 | 0.00 | 48 | 1027.4 |
| 20260502104503 | 50 | 179 | 0.0 | 1.0 | 0.00 | 0.00 | 0.00 | 49 | 1027.4 |
| 20260502103603 | 50 | 0 | 0.0 | 0.0 | 0.00 | 0.00 | 0.00 | 50 | 1027.4 |
| 20260502102703 | 51 | 179 | 0.0 | 2.0 | 0.00 | 0.00 | 0.00 | 51 | 1027.4 |
| 20260502101803 | 51 | 216 | 0.0 | 2.0 | 0.00 | 0.00 | 0.00 | 50 | 1027.4 |
| 20260502100903 | 51 | 221 | 0.0 | 1.0 | 0.00 | 0.00 | 0.00 | 50 | 1027.4 |
| 20260502090903 | 51 | 0 | 0.0 | 0.0 | 0.00 | 0.00 | 0.00 | 44 | 1027.4 |
| 20260502070903 | 48 | 298 | 0.0 | 2.0 | 0.00 | 0.00 | 0.00 | 50 | 1027.4 |
| 20260502070004 | 48 | 298 | 0.0 | 2.0 | 0.00 | 0.00 | 0.00 | 49 | 1027.4 |
| 20260502065403 | 48 | 298 | 0.0 | 2.0 | 0.00 | 0.00 | 0.00 | 49 | 1027.4 |
| 20260502064504 | 48 | 298 | 0.0 | 2.0 | 0.00 | 0.00 | 0.00 | 49 | 1027.4 |
| 20260502063603 | 48 | 298 | 0.0 | 2.0 | 0.00 | 0.00 | 0.00 | 48 | 1027.4 |
| 20260502062703 | 49 | 0 | 0.0 | 0.0 | 0.00 | 0.00 | 0.00 | 48 | 1027.4 |
| 20260502061824 | 49 | 298 | 0.0 | 1.0 | 0.00 | 0.00 | 0.00 | 46 | 1027.4 |
| 20260502060903 | 50 | 298 | 0.0 | 1.0 | 0.00 | 0.00 | 0.00 | 46 | 1027.4 |
| 20260502060004 | 50 | 0 | 0.0 | 0.0 | 0.00 | 0.00 | 0.00 | 44 | 1027.4 |
| 20260502055424 | 50 | 0 | 0.0 | 0.0 | 0.00 | 0.00 | 0.00 | 44 | 1027.4 |
| 20260502054503 | 51 | 298 | 0.0 | 2.0 | 0.00 | 0.00 | 0.00 | 45 | 1027.4 |
| 20260502053603 | 51 | 0 | 0.0 | 0.0 | 0.00 | 0.00 | 0.00 | 44 | 1027.4 |
| 20260502052703 | 52 | 0 | 0.0 | 0.0 | 0.00 | 0.00 | 0.00 | 41 | 1027.4 |
| 20260502051803 | 53 | 0 | 0.0 | 0.0 | 0.00 | 0.00 | 0.00 | 39 | 1027.4 |
| 20260502050903 | 53 | 0 | 0.0 | 0.0 | 0.00 | 0.00 | 0.00 | 39 | 1027.4 |
| 20260502050004 | 53 | 298 | 0.0 | 1.0 | 0.00 | 0.00 | 0.00 | 40 | 1027.4 |
| 20260502045403 | 53 | 298 | 0.0 | 1.0 | 0.00 | 0.00 | 0.00 | 40 | 1027.4 |
| 20260502044504 | 53 | 298 | 0.0 | 1.0 | 0.00 | 0.00 | 0.00 | 40 | 1027.4 |
| 20260502043603 | 54 | 0 | 0.0 | 0.0 | 0.00 | 0.00 | 0.00 | 38 | 1027.4 |
| 20260502042703 | 55 | 298 | 0.0 | 1.0 | 0.00 | 0.00 | 0.00 | 36 | 1027.4 |
| 20260502041803 | 56 | 298 | 0.0 | 1.0 | 0.00 | 0.00 | 0.00 | 36 | 1027.4 |
| 20260502040903 | 56 | 0 | 0.0 | 0.0 | 0.00 | 0.00 | 0.00 | 35 | 1027.4 |
| 20260502040004 | 57 | 299 | 0.0 | 1.0 | 0.00 | 0.00 | 0.00 | 34 | 1027.4 |
| 20260502035404 | 57 | 0 | 0.0 | 0.0 | 0.00 | 0.00 | 0.00 | 35 | 1027.4 |
| 20260502034503 | 58 | 0 | 0.0 | 0.0 | 0.00 | 0.00 | 0.00 | 34 | 1027.4 |
| 20260502033603 | 58 | 0 | 0.0 | 0.0 | 0.00 | 0.00 | 0.00 | 33 | 1027.4 |
| 20260502032703 | 59 | 299 | 0.0 | 1.0 | 0.00 | 0.00 | 0.00 | 32 | 1027.4 |
| 20260502031803 | 60 | 0 | 0.0 | 0.0 | 0.00 | 0.00 | 0.00 | 31 | 1027.4 |
| 20260502030903 | 60 | 0 | 0.0 | 0.0 | 0.00 | 0.00 | 0.00 | 31 | 1027.4 |
| 20260502030004 | 60 | 299 | 0.0 | 1.0 | 0.00 | 0.00 | 0.00 | 30 | 1027.4 |
| 20260502025403 | 60 | 299 | 0.0 | 3.0 | 0.00 | 0.00 | 0.00 | 29 | 1027.4 |
| 20260502024503 | 61 | 299 | 0.0 | 2.0 | 0.00 | 0.00 | 0.00 | 28 | 1027.4 |
| 20260502023604 | 61 | 299 | 0.0 | 3.0 | 0.00 | 0.00 | 0.00 | 28 | 1027.4 |
| 20260502022724 | 61 | 304 | 1.0 | 4.0 | 0.00 | 0.00 | 0.00 | 28 | 1027.4 |
| 20260502021803 | 61 | 306 | 1.0 | 3.0 | 0.00 | 0.00 | 0.00 | 27 | 1027.4 |
| 20260502020903 | 62 | 303 | 2.0 | 7.0 | 0.00 | 0.00 | 0.00 | 27 | 1027.4 |
| 20260502020025 | 62 | 302 | 2.0 | 7.0 | 0.00 | 0.00 | 0.00 | 26 | 1027.4 |
| 20260502015403 | 62 | 312 | 2.0 | 8.0 | 0.00 | 0.00 | 0.00 | 26 | 1027.4 |